EW4492 Weather Reports


Display with metric or nautical units.
time (UTC)temp
F
wind
direction
speed
MPH
gust
MPH
rain 1hr
in
rain 24hr
in
rain mn
in
humidity
%
barometer
mb
20260507151400 56 254 14.0 21.0 0.00 0.00 0.00 72 1016.5
20260507150330 56 257 10.0 19.0 0.00 0.00 0.00 74 1016.6
20260507145333 55 248 14.0 21.0 0.00 0.00 0.00 74 1016.7
20260507144356 55 254 12.0 18.0 0.00 0.00 0.00 75 1016.6
20260507143339 53 250 10.0 16.0 0.00 0.00 0.00 78 1016.4
20260507142333 53 236 9.0 14.0 0.00 0.00 0.00 78 1016.2
20260507141327 53 264 9.0 16.0 0.00 0.00 0.00 78 1016.3
20260507140333 52 242 8.0 16.0 0.00 0.00 0.00 78 1016.3
20260507135402 52 242 7.0 13.0 0.00 0.00 0.00 79 1016.2
20260507134351 52 243 6.0 11.0 0.00 0.00 0.00 79 1016.1
20260507133328 52 252 8.0 13.0 0.00 0.00 0.00 79 1016.0
20260507132357 52 267 5.0 10.0 0.00 0.00 0.00 80 1016.0
20260507131330 51 254 6.0 11.0 0.00 0.00 0.00 80 1015.9
20260507130419 50 225 7.0 10.0 0.00 0.00 0.00 79 1015.8
20260507125338 48 256 3.0 6.0 0.00 0.00 0.00 79 1016.0
20260507124344 48 246 0.0 2.0 0.00 0.00 0.00 80 1015.9
20260507123342 48 246 0.0 3.0 0.00 0.00 0.00 80 1015.9
20260507122354 48 247 3.0 5.0 0.00 0.00 0.00 80 1016.0
20260507121329 48 245 2.0 5.0 0.00 0.00 0.00 80 1016.0
20260507120340 47 239 3.0 5.0 0.00 0.00 0.00 80 1015.9
20260507115333 48 188 1.0 2.0 0.00 0.00 0.00 80 1015.9
20260507114353 49 186 1.0 3.0 0.00 0.00 0.00 80 1015.9
20260507113332 51 220 0.0 2.0 0.00 0.00 0.00 79 1015.9
20260507112340 52 289 0.0 0.0 0.00 0.00 0.00 78 1015.9
20260507111330 53 289 0.0 3.0 0.00 0.00 0.00 78 1015.9
20260507110333 53 287 0.0 5.0 0.00 0.00 0.00 78 1015.9
20260507105404 53 287 4.0 8.0 0.00 0.00 0.00 78 1015.6
20260507104343 53 284 7.0 9.0 0.00 0.00 0.00 79 1015.6
20260507103403 51 266 2.0 5.0 0.00 0.00 0.00 79 1015.6
20260507102401 52 272 0.0 2.0 0.00 0.00 0.00 79 1015.5
20260507101341 52 272 4.0 5.0 0.00 0.00 0.00 78 1015.7
20260507100329 52 245 0.0 3.0 0.00 0.00 0.00 78 1015.7
20260507095334 53 242 2.0 5.0 0.00 0.00 0.00 77 1015.7
20260507094355 54 253 4.0 8.0 0.00 0.00 0.00 76 1015.6
20260507093333 54 261 3.0 8.0 0.00 0.00 0.00 74 1015.8
20260507092404 55 261 6.0 10.0 0.00 0.00 0.00 74 1015.8
20260507091332 55 246 3.0 7.0 0.00 0.00 0.00 73 1015.8
20260507090358 55 259 5.0 10.0 0.00 0.00 0.00 73 1015.7
20260507085338 55 261 6.0 9.0 0.00 0.00 0.00 73 1015.5
20260507084336 56 261 2.0 7.0 0.00 0.00 0.00 71 1015.7
20260507083352 57 261 4.0 13.0 0.00 0.00 0.00 69 1015.6
20260507082359 57 277 9.0 16.0 0.00 0.00 0.00 68 1015.5
20260507081336 57 269 8.0 13.0 0.00 0.00 0.00 67 1015.4
20260507080328 58 267 10.0 16.0 0.00 0.00 0.00 66 1015.2
20260507075343 58 272 10.0 16.0 0.00 0.00 0.00 65 1015.2
20260507074342 57 276 10.0 13.0 0.00 0.00 0.00 66 1015.1
20260507073348 57 269 9.0 14.0 0.00 0.00 0.00 66 1015.1
20260507072348 57 270 8.0 11.0 0.00 0.00 0.00 67 1015.3
20260507071328 57 259 5.0 10.0 0.00 0.00 0.00 66 1015.2
20260507070326 58 275 8.0 13.0 0.00 0.00 0.00 65 1015.1
20260507065357 58 257 8.0 14.0 0.00 0.00 0.00 64 1015.0
20260507064344 57 268 8.0 12.0 0.00 0.00 0.00 65 1015.2
20260507063350 57 264 8.0 11.0 0.00 0.00 0.00 65 1015.0
20260507062347 57 257 5.0 9.0 0.00 0.00 0.00 65 1015.0
20260507061347 58 252 6.0 13.0 0.00 0.00 0.00 64 1014.9
20260507060406 58 254 4.0 9.0 0.00 0.00 0.00 64 1014.9
20260507055332 59 258 6.0 11.0 0.00 0.00 0.00 62 1014.9
20260507054340 59 272 3.0 9.0 0.00 0.00 0.00 62 1014.7
20260507053330 60 245 7.0 12.0 0.00 0.00 0.00 60 1014.8
20260507052333 61 253 9.0 14.0 0.00 0.00 0.00 58 1014.8
20260507051326 61 265 11.0 15.0 0.00 0.00 0.00 58 1014.7
20260507050337 61 268 9.0 13.0 0.00 0.00 0.00 58 1014.8
20260507045345 61 257 6.0 12.0 0.00 0.00 0.00 57 1014.8
20260507044327 62 264 7.0 14.0 0.00 0.00 0.00 55 1014.9
20260507043354 63 265 11.0 18.0 0.00 0.00 0.00 53 1014.7
20260507042336 63 267 13.0 17.0 0.00 0.00 0.00 53 1014.6
20260507041348 63 270 7.0 15.0 0.00 0.00 0.00 54 1014.6
20260507040346 64 250 8.0 17.0 0.00 0.00 0.00 53 1014.6
20260507035401 65 258 13.0 18.0 0.00 0.00 0.00 51 1014.3
20260507034330 65 248 11.0 18.0 0.00 0.00 0.00 51 1014.1
20260507033338 66 251 10.0 18.0 0.00 0.00 0.00 51 1014.1
20260507032336 66 257 10.0 17.0 0.00 0.00 0.00 51 1013.9
20260507031401 67 245 11.0 18.0 0.00 0.00 0.00 51 1013.8
20260507030325 67 262 11.0 19.0 0.00 0.00 0.00 51 1013.8
20260507025353 68 252 12.0 18.0 0.00 0.00 0.00 50 1013.7
20260507024345 68 261 13.0 21.0 0.00 0.00 0.00 50 1013.4
20260507023338 69 250 10.0 18.0 0.00 0.00 0.00 50 1013.4
20260507022349 69 250 10.0 17.0 0.00 0.00 0.00 49 1013.4
20260507021357 69 242 10.0 15.0 0.00 0.00 0.00 48 1013.3
20260507020335 70 242 8.0 14.0 0.00 0.00 0.00 47 1013.3
20260507015331 71 250 12.0 24.0 0.00 0.00 0.00 46 1013.3
20260507014406 71 240 14.0 20.0 0.00 0.00 0.00 46 1013.1
20260507013339 72 259 10.0 17.0 0.00 0.00 0.00 48 1013.1
20260507012341 72 258 10.0 17.0 0.00 0.00 0.00 47 1013.1
20260507011335 73 271 15.0 22.0 0.00 0.00 0.00 45 1013.0
20260507010329 73 271 11.0 16.0 0.00 0.00 0.00 47 1012.9
20260507005340 73 255 7.0 16.0 0.00 0.00 0.00 48 1013.0
20260507004327 74 261 13.0 19.0 0.00 0.00 0.00 45 1013.0
20260507003343 74 280 11.0 21.0 0.00 0.00 0.00 46 1012.9
20260507002337 74 248 14.0 22.0 0.00 0.00 0.00 46 1012.8
20260507001351 75 254 11.0 18.0 0.00 0.00 0.00 48 1012.7
20260507000333 75 271 11.0 18.0 0.00 0.00 0.00 49 1012.6
20260506235400 74 272 9.0 16.0 0.00 0.00 0.00 50 1012.7
20260506234357 75 273 13.0 19.0 0.00 0.00 0.00 46 1012.7
20260506233333 75 266 13.0 17.0 0.00 0.00 0.00 47 1012.7
20260506232348 75 284 10.0 15.0 0.00 0.00 0.00 49 1012.8
20260506231338 75 264 12.0 19.0 0.00 0.00 0.00 47 1012.8
20260506230330 75 279 10.0 16.0 0.00 0.00 0.00 47 1012.8
20260506225340 76 267 10.0 19.0 0.00 0.00 0.00 46 1012.8
20260506224347 77 257 13.0 19.0 0.00 0.00 0.00 41 1012.9
20260506223337 77 266 14.0 19.0 0.00 0.00 0.00 43 1013.0
20260506222342 77 275 13.0 20.0 0.00 0.00 0.00 44 1013.2
20260506221333 77 277 13.0 19.0 0.00 0.00 0.00 43 1013.1
20260506220337 78 271 13.0 20.0 0.00 0.00 0.00 44 1013.1
20260506215342 78 261 12.0 19.0 0.00 0.00 0.00 45 1013.2
20260506214414 77 263 12.0 18.0 0.00 0.00 0.00 46 1013.4
20260506213416 78 267 12.0 19.0 0.00 0.00 0.00 45 1013.6
20260506212337 78 266 14.0 18.0 0.00 0.00 0.00 42 1013.8
20260506211348 77 274 13.0 20.0 0.00 0.00 0.00 45 1013.9
20260506210356 77 288 13.0 19.0 0.00 0.00 0.00 44 1013.8
20260506205358 78 269 11.0 23.0 0.00 0.00 0.00 42 1013.9
20260506204331 78 290 12.0 20.0 0.00 0.00 0.00 42 1013.8
20260506203356 79 275 12.0 19.0 0.00 0.00 0.00 40 1013.7
20260506202336 78 275 14.0 19.0 0.00 0.00 0.00 42 1013.7
20260506201355 79 279 14.0 19.0 0.00 0.00 0.00 41 1013.7
20260506200333 78 277 13.0 20.0 0.00 0.00 0.00 38 1013.7
20260506195336 78 277 10.0 19.0 0.00 0.00 0.00 39 1013.7
20260506194352 77 250 10.0 16.0 0.00 0.00 0.00 43 1013.7
20260506193335 76 260 11.0 17.0 0.00 0.00 0.00 46 1013.8
20260506192335 75 269 12.0 18.0 0.00 0.00 0.00 49 1014.0
20260506191334 74 248 10.0 17.0 0.00 0.00 0.00 53 1014.1
20260506190333 73 246 11.0 20.0 0.00 0.00 0.00 54 1014.3
20260506185347 73 247 11.0 21.0 0.00 0.00 0.00 54 1014.4
20260506184335 71 249 12.0 19.0 0.00 0.00 0.00 55 1014.5
20260506183336 71 250 14.0 20.0 0.00 0.00 0.00 55 1014.6
20260506182345 70 246 15.0 21.0 0.00 0.00 0.00 54 1014.7
20260506181334 70 267 15.0 20.0 0.00 0.00 0.00 56 1014.9
20260506180345 70 273 15.0 21.0 0.00 0.00 0.00 56 1015.0
20260506175340 69 275 13.0 17.0 0.00 0.00 0.00 58 1015.1
20260506174352 69 265 11.0 19.0 0.00 0.00 0.00 60 1015.3
20260506173342 68 272 13.0 20.0 0.00 0.00 0.00 60 1015.3
20260506172341 68 257 15.0 23.0 0.00 0.00 0.00 59 1015.2
20260506171343 67 248 15.0 21.0 0.00 0.00 0.00 60 1015.4
20260506170352 67 257 15.0 20.0 0.00 0.00 0.00 61 1015.2
20260506165332 67 251 15.0 21.0 0.00 0.00 0.00 61 1015.2
20260506164330 66 258 13.0 17.0 0.00 0.00 0.00 63 1015.2
20260506163341 65 267 12.0 19.0 0.00 0.00 0.00 65 1015.2
20260506162335 65 244 12.0 18.0 0.00 0.00 0.00 65 1015.3
20260506161336 64 259 13.0 18.0 0.00 0.00 0.00 67 1015.3
20260506160329 63 258 12.0 18.0 0.00 0.00 0.00 68 1015.4
20260506155355 63 255 15.0 20.0 0.00 0.00 0.00 68 1015.4
20260506154340 62 259 15.0 22.0 0.00 0.00 0.00 68 1015.3
20260506153328 62 234 14.0 21.0 0.00 0.00 0.00 69 1015.3
20260506152339 61 254 13.0 19.0 0.00 0.00 0.00 71 1015.2